Location: Casteau
(50.5142°N, 4.0161°E)
Time: 00:29:16
(UTC+00:00)

S-56A Canister/Altair - Pass Details

Date: 02 August 2021
Orbit: 632 x 2500 km, 38.9° (Epoch: 19 September)

Event Time Altitude Azimuth Distance (km) Brightness Sun altitude
Rises 20:46:59 0° 280° (W) 6,183 13.1 -11.0°
Reaches altitude 10° 20:52:39 10° 266° (W) 5,109 12.3 -11.6°
Maximum altitude 21:01:39 20° 228° (SW) 4,049 11.2 -12.5°
Drops below altitude 10° 21:09:32 10° 188° (S) 4,373 11.0 -13.4°
Enters shadow 21:11:48 - 179° (S) 4,692 11.1 -13.6°
Sets 21:13:54 0° 172° (S) 5,055 - -13.8°
